CAPE
522 621 589 828 1070 1260 1439 1439 1504 1571 1739 1690 1717 1909 1809 1697 1707 1514 1388 1591 1542 1591 1619 1611 1697 1748 1540 1565 1540 1537 1586 1468 1453 1544 1590 1466 1627 1469 766 912 1132 1115 1207 1273 1317 1235 992 937 477 500 324 358 307 304 277 294 266 348 647 460 463 446 368 296 194 125 86 45 45 73 66 64 60 49 35 31 21 21 20 14 11 12 15 14 44
457 291 174 212 259 488 1018 1405 1579 1656 1726 1838 1792 1823 1908 1826 1838 1557 1320 1277 1213 1367 1352 1434 1315 1418 1473 1682 1692 1774 1744 1712 1456 1232 1562 1556 1841 1964 784 950 1188 1221 1315 1437 1414 1056 1042 1028 920 565 538 383 326 424 449 336 435 425 618 850 836 634 658 627 394 260 228 169 118 148 151 128 145 133 115 121 140 158 149 127 98 93 91 93 118
337 223 166 185 257 310 319 407 843 1361 1550 1580 1702 1683 1614 1725 1636 1601 1447 1282 1154 1324 1290 1327 1239 1220 1242 1384 1654 1700 1716 1629 1524 1318 1555 1768 2039 1922 1338 930 1168 1248 1307 1258 1176 1162 1058 1084 941 798 789 574 713 716 720 709 656 697 1075 1266 1396 1287 926 779 742 576 414 379 322 331 287 241 240 231 251 286 300 315 284 255 228 224 220 259 252
291 183 153 123 229 326 456 513 331 348 641 956 1344 1401 1470 1095 1334 1686 1634 1499 1387 1283 1190 1130 1231 1030 963 1162 1376 1355 1346 1466 1216 1236 1426 1841 1835 1954 1844 1276 1057 1100 1079 1126 1132 1078 1145 884 846 944 917 889 890 943 860 836 789 868 1032 1024 1071 1052 1119 1192 1097 937 662 561 522 537 499 341 286 411 431 466 487 513 499 445 403 379 380 304 284
403 307 171 104 152 231 428 514 527 527 506 878 872 1034 833 1121 1660 1013 1431 1486 1468 1392 911 1118 1173 1123 971 1024 1257 1214 1280 1271 1438 1447 1321 1719 1860 2031 2021 1871 1719 888 879 1266 1146 1142 790 412 642 887 969 1069 1113 1103 1025 948 989 946 967 988 900 1072 1278 1152 1071 1064 997 828 701 784 734 672 578 534 541 430 530 409 563 523 393 359 223 196 238
443 460 425 269 190 94 218 375 503 610 483 599 375 461 409 530 772 840 708 683 958 1085 1053 1087 935 942 1073 995 954 1178 977 913 1556 1759 2008 1556 1867 1768 1854 1852 1852 1795 1705 1562 1474 1216 1136 1042 992 956 957 976 976 1014 1046 1044 984 961 971 830 840 876 802 998 1196 1093 1003 948 846 790 833 876 768 762 681 594 612 653 489 356 448 408 342 349 284
461 547 490 363 283 212 169 159 291 543 355 460 401 337 262 320 318 184 315 324 346 297 422 598 600 519 927 793 848 629 785 964 1328 1548 1440 1964 1606 1378 1657 1770 1788 1439 831 520 1070 1059 951 879 846 893 982 930 832 808 811 810 771 833 899 860 810 912 954 1050 962 1116 1218 1182 1158 947 884 648 619 520 664 463 431 409 312 306 334 343 278 241 207
392 384 404 263 226 253 303 312 223 333 496 513 355 331 328 347 287 148 94 32 25 159 185 290 486 681 709 762 1068 832 1114 1376 1626 1386 1351 1182 1306 1722 1658 1201 1202 996 1184 858 966 871 841 713 739 818 826 782 797 736 792 739 800 835 982 951 894 932 1051 1164 1233 1312 1271 1201 1019 938 818 798 742 669 640 538 434 483 361 389 373 402 272 237 273
338 389 303 259 199 186 292 396 344 151 208 330 209 207 286 279 340 311 227 123 67 42 24 228 299 662 527 832 817 1025 1455 1671 1860 1672 1446 1424 1418 1250 1046 1579 1555 1352 1658 1284 1154 862 703 742 699 695 545 565 736 736 840 691 812 806 764 755 778 908 967 1287 1347 1325 1412 1435 1292 1102 876 822 708 515 563 556 644 635 428 323 296 310 136 206 220
295 250 248 160 195 250 268 314 276 290 274 169 77 64 160 194 168 258 142 68 79 98 64 103 141 232 524 819 1081 995 1000 1119 1301 1502 1662 1649 1580 1624 1458 1129 936 884 981 868 859 722 826 732 582 496 444 591 636 793 781 939 998 835 950 915 995 1020 1037 1251 1270 1338 1322 1415 1206 926 892 810 584 534 571 432 427 351 377 372 360 356 286 199 156
266 269 240 147 125 204 197 289 231 255 274 166 112 152 181 168 62 33 89 15 3 22 27 33 155 193 308 583 708 884 711 924 1103 1350 1409 1317 1241 1039 1032 1048 921 817 689 685 587 610 582 649 870 895 512 520 588 669 716 854 946 1042 791 839 949 1000 1143 1242 1191 1202 1086 1102 952 922 912 733 653 552 483 440 422 390 282 232 241 282 192 105 26
195 198 216 173 156 164 246 218 219 224 282 247 218 128 276 259 222 160 106 48 88 145 219 139 155 322 575 588 576 644 891 805 1048 1203 1133 1150 1106 1075 923 650 680 604 485 428 500 545 493 437 500 762 858 662 492 605 639 710 743 832 900 836 780 801 865 980 977 960 888 774 778 716 603 650 537 474 452 461 364 334 285 224 116 42 6 4 1
148 142 137 150 160 210 262 312 222 256 319 317 337 283 250 340 258 308 161 153 167 252 276 198 270 432 662 570 662 750 648 754 1162 1206 1199 1110 913 719 440 517 518 555 459 437 487 475 473 357 434 442 575 840 772 545 545 515 536 673 674 662 732 639 657 708 751 755 739 691 504 459 497 400 445 435 422 456 295 145 34 8 5 7 5 3 3
172 197 211 170 200 202 272 298 301 250 306 303 364 370 306 245 236 196 92 104 255 224 412 354 250 86 152 468 1136 1473 1358 1273 1316 1152 916 603 519 480 363 430 533 538 527 487 367 265 283 197 210 344 301 544 628 322 353 823 583 410 452 648 659 572 535 535 443 423 460 419 412 415 388 212 453 163 296 236 4 5 6 6 11 10 10 8 11
138 141 189 206 202 205 208 247 301 266 261 304 330 377 369 323 351 209 204 83 86 203 487 427 187 111 251 228 279 768 1252 1116 948 778 626 594 508 509 552 532 498 496 449 352 282 226 171 118 186 221 396 314 594 668 182 299 317 297 316 344 312 504 439 320 405 409 378 353 294 220 130 77 334 6 5 5 6 5 5 6 9 9 8 6 7
113 85 111 174 176 150 135 205 208 245 167 183 279 294 374 319 328 312 339 156 52 107 217 463 462 352 97 87 114 214 145 580 545 634 534 416 434 412 498 420 406 378 391 335 239 176 126 77 112 192 241 352 210 237 533 531 228 195 228 164 227 197 370 392 358 319 214 129 97 54 30 10 7 4 3 4 5 7 6 5 6 6 4 6 9
61 72 84 146 167 133 134 148 207 222 157 164 183 205 211 242 363 318 356 350 176 179 300 398 495 732 477 248 97 124 131 565 621 641 355 341 239 315 307 296 286 270 221 141 54 107 47 41 18 36 102 206 313 271 233 136 232 289 184 148 106 49 62 70 81 59 37 25 9 11 10 8 4 0 2 4 5 5 6 6 6 6 6 5 12
0 20 40 107 176 179 207 106 182 202 197 168 190 194 214 247 196 242 284 395 376 160 201 699 736 801 934 900 1183 560 506 592 458 269 520 280 150 149 233 228 256 199 144 74 30 50 12 7 171 188 68 63 170 75 25 4 9 9 9 90 90 4 1 2 2 5 4 3 6 6 4 5 4 2 4 7 8 8 7 7 7 6 7 6 8
12 0 3 20 120 126 189 92 92 114 66 149 136 186 93 180 226 204 249 284 366 293 257 303 779 661 687 1261 1372 1132 837 781 592 291 345 136 159 15 2 71 167 96 44 12 17 18 23 22 28 29 85 149 178 174 6 7 6 5 6 2 1 20 28 102 0 0 1 2 3 3 4 4 5 5 7 8 6 5 5 5 6 7 7 6 10
26 4 2 2 36 68 101 112 88 78 41 92 122 102 84 180 180 206 201 284 363 365 372 371 319 998 985 1061 1032 1100 818 1183 743 573 404 123 22 5 13 5 6 112 61 13 21 7 9 8 6 1 0 70 140 124 86 6 6 2 2 2 3 2 2 0 0 0 1 2 4 4 4 5 8 8 9 7 3 2 4 9 6 6 9 11 16
36 20 10 1 15 63 78 113 175 204 57 50 98 108 145 133 116 96 214 242 338 392 396 406 504 878 934 860 822 716 968 705 865 908 677 655 162 34 16 17 15 6 6 0 0 3 1 2 2 0 8 7 7 7 6 6 7 8 3 5 3 1 1 0 0 0 1 3 3 7 4 8 9 9 7 4 15 10 8 7 11 8 16 16 18
95 22 0 0 22 10 34 111 154 148 134 121 86 72 74 121 129 101 125 133 206 306 359 368 800 939 784 762 721 659 668 646 749 765 866 371 411 38 68 138 17 6 2 0 0 0 0 5 0 0 0 0 2 2 0 0 3 3 0 1 4 3 1 0 0 0 3 5 5 7 7 8 9 10 10 11 11 10 7 8 15 16 17 16 12
91 50 17 4 4 14 79 116 114 120 85 11 46 17 12 31 38 56 67 75 103 194 226 370 904 821 808 703 644 588 606 525 340 596 707 348 444 126 240 116 21 3 0 0 0 0 0 0 0 0 0 0 0 0 0 0 0 0 0 0 0 1 4 3 2 3 5 9 8 12 10 8 13 14 16 16 13 9 6 5 5 9 12 14 15
74 8 13 2 12 58 88 112 111 105 72 18 12 16 13 8 7 13 14 15 49 131 200 237 370 440 302 648 739 736 834 784 749 768 525 415 651 163 134 77 12 2 0 0 2 0 0 0 4 56 0 0 0 0 0 0 0 0 0 0 0 0 2 5 5 8 6 7 10 11 14 15 22 19 19 17 12 8 4 4 5 5 7 11 15
1 2 2 8 12 35 53 30 40 64 39 29 32 23 15 10 6 7 4 9 36 42 44 172 173 165 207 161 350 360 517 888 896 928 803 519 852 298 322 160 23 4 0 10 5 0 0 0 0 5 75 0 0 0 0 0 0 0 0 0 0 0 0 3 4 9 9 15 20 19 19 17 22 21 16 10 6 4 3 4 7 8 7 11 12
1 0 0 4 22 20 80 64 62 39 27 32 26 18 10 10 10 4 3 17 24 21 46 80 121 182 187 122 215 212 399 748 1043 869 932 569 404 553 287 154 43 3 2 22 0 0 0 0 0 0 5 0 0 0 0 0 0 0 0 0 0 0 0 0 5 15 9 18 24 16 23 22 18 12 7 4 5 4 4 5 7 9 10 12 12
0 0 0 4 14 24 25 31 30 32 29 22 18 17 10 10 12 8 7 15 5 11 40 57 74 129 228 217 228 218 263 532 830 941 764 871 614 276 489 150 117 28 6 0 0 0 0 0 0 0 0 0 0 0 0 0 0 0 0 0 0 0 0 0 0 4 22 14 14 17 21 16 7 0 0 1 5 7 6 8 9 11 13 14 15
0 0 0 3 41 51 36 31 16 18 15 9 11 10 9 9 9 11 12 9 17 7 20 40 61 80 107 153 165 184 263 441 722 868 846 1202 1025 749 266 639 264 27 1 2 0 0 0 0 0 0 0 0 0 0 0 0 0 0 0 0 0 0 0 0 0 0 2 17 18 22 14 3 0 0 0 0 1 6 7 8 9 9 11 11 12
1 0 0 11 39 29 30 7 5 7 5 6 7 6 4 0 0 2 3 12 15 7 18 19 24 19 41 52 122 99 82 205 662 797 872 867 1024 1074 918 629 911 133 51 12 2 1 0 1 1 0 0 0 0 0 0 0 0 0 0 0 0 0 0 0 0 0 0 2 14 13 5 0 0 0 0 0 0 0 2 4 6 6 10 8 10
0 0 0 7 63 42 28 8 4 3 2 4 0 2 0 0 4 2 2 16 12 3 1 2 0 6 13 69 69 44 24 95 281 668 1016 733 992 988 751 280 508 413 43 19 15 2 3 1 1 0 0 0 0 0 0 0 0 0 0 0 0 0 0 0 0 0 0 0 0 0 0 0 0 0 0 0 0 0 0 1 1 2 2 5 5
0 2 1 0 40 46 22 12 8 2 1 2 0 0 0 0 0 3 0 3 0 0 0 0 0 0 0 1 13 0 1 18 16 272 731 978 637 682 905 956 887 734 249 172 12 2 1 0 0 0 0 0 0 0 0 0 0 0 0 0 0 0 0 0 0 0 0 0 0 0 0 0 0 0 0 0 0 0 0 0 1 1 0 0 1
6 0 0 0 14 50 7 4 6 2 2 0 0 0 0 0 0 0 0 0 0 0 0 0 0 0 0 0 0 0 0 0 0 1 99 406 949 737 668 856 896 770 573 328 129 3 5 0 0 0 0 0 0 0 0 0 0 0 0 0 0 8 0 0 0 0 0 0 0 0 0 0 0 0 0 0 0 0 0 0 0 0 0 0 0
2 0 0 3 2 6 4 0 1 1 0 0 0 0 0 0 0 0 0 0 0 0 0 0 0 0 0 0 0 0 0 0 0 0 0 41 399 1000 891 919 720 374 143 189 87 2 1 1 0 0 0 0 0 0 0 0 0 0 0 0 0 0 0 0 0 0 0 0 0 0 0 0 0 0 0 0 0 0 0 0 0 0 0 0 0
3 2 0 32 0 2 0 0 0 0 0 0 0 0 0 0 0 0 0 0 0 0 0 0 0 0 0 0 0 0 0 0 0 0 0 0 32 243 982 317 210 193 192 150 113 8 2 1 1 0 0 0 0 0 0 0 0 0 0 0 0 0 0 0 0 0 0 0 0 0 0 0 0 0 0 0 0 0 0 0 0 0 0 0 0
2 0 0 11 0 0 0 0 0 0 0 0 0 0 0 0 0 0 0 0 0 0 0 0 0 0 0 0 0 0 0 0 0 0 0 15 30 135 205 162 206 262 284 176 75 16 8 6 3 1 2 0 0 0 0 0 0 0 0 0 0 0 0 0 0 0 0 0 0 0 0 0 0 0 0 0 0 0 0 0 0 0 0 0 0
3 0 0 0 16 4 0 0 0 0 0 0 0 0 0 0 0 0 0 0 0 0 0 0 0 0 0 0 0 0 0 0 0 0 16 78 104 163 252 255 268 254 174 67 13 12 9 2 3 0 6 0 0 0 0 0 0 0 0 0 0 0 0 0 0 0 0 0 0 0 0 0 0 0 0 0 0 0 0 0 0 0 0 0 0
4 4 0 0 2 0 0 0 0 0 0 0 0 0 0 0 0 0 0 0 0 0 0 0 0 0 0 0 0 0 0 0 0 0 41 121 48 148 163 104 222 209 50 7 6 6 4 0 0 0 0 0 0 0 0 0 0 0 0 0 0 0 0 0 0 0 0 0 0 0 0 0 0 0 0 0 0 0 0 0 0 0 0 0 0
20 10 2 0 0 0 0 0 0 0 0 0 0 0 0 0 0 0 0 0 0 0 0 0 0 0 0 0 0 0 0 0 0 0 0 15 7 19 26 3 6 8 1 0 0 1 1 2 0 0 0 0 0 0 0 0 0 0 0 0 0 0 0 0 0 0 0 0 1 0 0 0 0 0 0 0 0 0 0 0 0 0 0 0 0
28 8 1 0 0 0 0 0 0 0 0 0 0 0 0 0 0 0 0 0 0 0 0 0 0 0 0 0 0 0 0 0 0 0 0 0 0 0 0 0 0 0 0 0 0 0 0 1 0 0 2 2 2 0 0 0 0 0 0 0 0 0 0 0 0 0 0 0 0 0 0 0 0 0 0 0 0 0 0 0 0 0 0 0 0
22 2 0 0 0 0 0 0 0 0 0 0 0 0 0 0 0 0 0 0 0 0 0 0 0 0 0 0 0 0 0 0 0 0 0 0 0 0 0 0 0 0 0 0 0 0 0 0 0 0 0 0 0 2 0 0 0 0 0 0 0 0 0 0 0 0 0 0 0 0 0 0 0 0 0 0 0 0 0 0 0 0 0 0 0
32 2 0 0 0 0 0 0 0 0 0 0 0 0 0 0 0 0 0 0 0 0 0 0 0 0 0 0 0 0 0 0 0 0 0 0 0 0 0 0 0 0 0 0 0 0 0 0 0 0 0 0 1 0 0 0 0 0 0 0 1 0 0 0 0 0 0 0 0 0 0 0 0 0 0 0 0 0 0 0 0 0 0 0 0
38 9 0 0 0 0 0 0 0 0 0 0 0 0 0 0 0 0 0 0 0 0 0 0 0 0 0 0 0 0 0 0 0 0 0 0 0 0 0 0 0 0 0 0 0 0 0 0 0 0 0 0 0 0 0 0 0 0 0 0 0 0 0 0 0 0 0 0 0 0 0 0 0 0 0 0 0 0 0 0 0 0 0 0 0
48 26 4 0 0 0 0 0 0 0 0 0 0 0 0 0 0 0 0 0 0 0 0 0 0 0 0 0 0 0 0 0 0 0 0 0 0 0 0 0 0 1 0 0 0 0 0 0 0 0 0 0 0 0 0 0 0 0 0 0 0 0 0 0 0 0 0 0 0 0 0 0 0 0 0 0 0 0 0 0 0 0 0 0 0
64 40 10 0 0 0 0 0 0 0 0 0 0 0 0 0 0 0 0 0 0 0 0 0 0 0 0 0 0 0 0 0 0 0 0 0 0 0 0 0 0 0 0 0 0 0 0 0 0 0 0 0 0 0 0 0 0 0 0 0 0 0 1 0 0 0 0 0 0 0 0 0 0 0 0 0 0 0 0 0 0 0 0 0 0
111 54 19 2 0 0 0 0 0 0 0 0 0 0 0 0 0 0 0 0 0 0 0 0 0 0 0 0 0 0 0 0 0 0 0 0 0 0 0 0 0 0 0 0 0 0 0 0 0 0 0 0 0 0 0 0 0 0 0 0 0 0 0 0 0 0 0 0 0 0 0 0 0 0 0 0 0 0 0 0 0 0 0 0 0
119 68 44 9 1 0 0 0 0 0 0 0 0 0 0 0 0 0 0 0 0 0 0 0 0 0 0 0 0 0 0 0 0 0 0 0 0 0 0 0 0 0 0 0 0 0 0 0 0 0 0 0 0 0 0 0 0 0 0 0 0 0 0 0 0 0 0 0 0 1 0 0 0 0 0 0 0 0 0 0 0 0 0 0 0
138 83 57 36 16 1 0 0 0 0 0 0 0 0 0 0 0 0 0 0 0 0 0 0 0 0 0 0 0 0 0 0 0 0 0 0 0 0 0 0 0 0 0 0 0 0 0 0 0 0 0 0 2 0 0 0 0 0 0 0 0 0 0 0 0 0 0 0 0 0 0 0 0 0 0 0 0 0 0 0 0 0 0 0 0
166 68 63 56 25 6 0 0 0 0 0 0 0 0 0 0 0 0 0 0 0 0 0 0 0 0 0 0 0 0 0 0 0 0 0 0 0 0 0 0 0 0 0 0 0 0 0 0 0 0 0 0 0 0 0 3 0 0 0 0 0 0 0 0 0 0 0 0 0 0 0 0 0 0 0 0 0 0 0 0 0 0 0 0 0
205 82 97 72 33 14 0 0 0 0 0 0 0 0 0 0 0 0 0 0 0 0 0 0 0 0 0 0 0 0 0 0 0 0 0 0 0 0 0 0 0 0 0 0 0 0 0 0 0 0 0 0 0 0 0 0 0 0 0 0 0 0 0 0 0 0 0 0 0 0 0 0 0 0 0 0 0 0 0 0 0 0 0 0 0
270 120 98 76 30 9 0 0 0 0 0 0 0 0 0 0 0 0 0 0 0 0 0 0 0 0 0 0 0 0 0 0 0 0 0 0 0 0 0 0 0 0 0 0 0 0 0 0 0 0 0 0 0 0 0 0 0 0 0 0 0 0 0 0 0 0 0 0 0 0 0 0 0 0 0 0 0 0 0 0 0 0 0 0 0
301 313 29 20 11 0 0 0 0 0 0 0 0 0 0 0 0 0 0 0 0 0 0 0 0 0 0 0 0 0 0 0 0 0 0 0 0 0 0 0 0 0 0 0 0 0 0 0 0 0 0 0 0 0 0 0 0 0 0 0 0 0 0 0 0 0 0 0 0 0 0 0 0 0 0 0 0 0 0 0 0 0 0 0 0
Wind_Speed
13 13 13 13 11 11 10 10 10 10 8 8 7 7 7 7 7 6 8 8 8 8 7 8 8 8 8 10 10 13 13 13 13 16 14 17 15 18 16 15 12 10 11 11 12 12 11 11 12 13 13 13 14 13 13 11 11 11 15 15 15 15 16 16 15 14 nan nan nan nan nan nan nan nan nan nan nan nan nan nan nan nan nan nan nan
12 12 13 12 11 10 9 10 10 9 8 8 8 7 8 8 8 8 11 10 10 13 8 10 11 11 11 10 11 11 14 12 12 13 15 16 16 18 18 16 13 12 12 13 13 13 13 13 12 13 13 13 13 13 12 11 11 11 14 15 16 16 16 16 15 15 15 15 15 15 15 14 14 14 13 13 13 13 13 13 nan nan nan nan 11
14 13 12 11 10 10 10 9 8 9 8 9 9 9 9 10 10 11 12 12 13 13 11 13 13 13 16 13 13 13 14 13 13 13 15 17 17 18 19 15 14 14 14 13 13 13 14 13 13 13 12 12 12 12 13 12 11 11 14 17 18 17 15 15 16 15 15 15 16 16 16 16 15 14 14 14 14 14 14 13 12 11 9 10 10
14 13 11 10 11 11 10 11 10 10 9 9 9 10 10 11 13 13 14 13 13 14 14 14 14 15 14 17 16 15 16 15 13 16 15 18 17 18 17 18 15 14 14 14 15 14 14 15 14 12 12 11 10 11 12 12 12 13 15 16 16 18 16 15 15 15 14 15 16 18 17 16 16 15 15 15 15 14 14 13 12 10 9 8 9
13 13 12 12 11 11 11 12 12 11 10 10 10 10 11 12 14 14 14 15 14 15 15 16 15 15 14 16 16 16 17 17 17 16 17 16 18 18 18 18 20 20 15 16 18 18 17 17 18 17 15 15 13 11 8 7 10 13 13 13 13 15 17 18 17 16 16 16 17 20 19 18 18 17 16 15 14 14 14 13 12 11 9 9 9
14 14 13 13 13 nan 13 13 13 12 11 10 10 11 12 14 14 15 16 15 15 16 16 17 16 17 17 17 17 17 17 16 20 20 19 17 22 18 20 20 20 21 23 23 22 23 22 20 19 18 18 18 19 17 13 10 9 11 15 16 14 15 16 17 19 20 20 19 19 20 21 21 21 20 20 17 16 15 15 14 15 15 14 14 12
15 14 15 15 15 16 14 14 13 12 13 13 11 12 14 14 15 14 17 16 16 18 18 18 17 18 19 19 19 19 19 19 20 19 20 21 18 22 21 21 23 24 30 29 26 30 32 32 30 30 30 28 27 26 23 19 18 17 18 17 18 19 20 20 19 19 20 22 23 22 21 19 20 22 22 19 17 17 17 15 15 17 18 17 15
16 16 16 17 17 17 17 16 14 14 15 15 14 15 16 15 16 15 nan nan nan 18 20 19 19 20 20 21 21 21 22 22 22 20 22 19 24 23 22 25 23 30 28 32 30 34 35 36 35 35 34 33 32 30 29 28 27 25 23 21 21 21 22 23 22 22 22 21 21 22 21 19 19 20 20 19 18 18 18 18 19 18 20 19 19
17 17 16 17 17 17 18 18 17 17 16 16 16 16 17 17 16 17 16 15 nan nan nan 21 21 21 21 22 23 23 25 26 25 24 24 25 24 27 28 28 30 30 31 32 33 34 37 38 37 37 37 36 35 34 33 31 30 28 26 26 25 24 25 26 26 25 24 23 23 22 22 21 25 22 21 22 22 22 23 21 22 22 21 20 21
18 18 17 18 18 18 19 18 18 18 19 18 nan nan 19 17 17 17 18 nan nan nan nan 22 22 23 24 24 24 24 26 27 28 28 29 30 30 31 31 31 31 33 33 34 35 35 35 39 40 41 40 38 37 36 36 36 35 32 33 33 32 33 33 32 30 28 26 24 26 25 25 29 25 25 24 23 22 24 28 28 25 27 30 30 31
20 19 19 19 19 20 19 19 19 19 20 20 21 22 21 20 nan nan nan nan nan nan nan nan 23 24 25 26 26 28 27 28 29 31 32 33 34 35 36 36 37 38 38 38 37 38 37 35 35 36 39 40 38 38 40 40 39 39 39 39 40 40 40 40 39 37 35 35 33 31 31 30 28 26 27 26 29 33 31 33 35 36 37 36 nan
21 20 20 19 20 20 20 20 20 21 22 22 22 23 23 22 22 21 22 nan nan 21 22 23 25 25 27 29 29 31 32 31 32 33 34 34 36 37 38 39 40 41 42 41 40 41 40 38 37 38 38 39 39 38 43 46 45 44 45 44 43 42 43 43 42 41 40 38 37 35 33 32 32 34 33 38 41 40 40 39 39 nan nan nan nan
22 21 21 20 20 21 21 22 21 23 23 23 23 23 22 21 20 21 20 21 23 22 21 20 24 25 27 29 31 32 34 34 36 37 37 37 38 40 40 40 40 42 43 43 44 43 42 41 41 40 39 38 39 45 44 47 47 46 48 48 47 47 46 45 44 42 42 41 40 41 44 44 45 46 45 44 43 43 nan nan nan nan nan nan nan
21 22 22 22 22 22 22 22 22 22 22 22 22 21 21 21 19 19 nan 21 22 21 22 19 21 nan 24 27 29 31 33 35 36 37 38 38 38 40 40 41 42 43 43 44 44 44 45 43 42 41 41 39 38 38 37 38 43 46 48 49 49 49 50 51 49 49 49 49 49 48 47 45 45 46 46 44 nan nan nan nan nan nan nan nan nan
21 22 22 22 22 22 22 21 21 20 19 19 20 20 19 20 21 21 21 nan nan 25 24 22 21 23 23 23 28 30 31 33 33 35 35 35 37 39 40 41 42 42 42 43 43 44 44 43 42 42 41 40 39 37 41 41 42 47 48 49 50 51 50 49 48 48 48 47 47 47 46 nan 43 nan nan nan nan nan nan nan nan nan nan nan nan
23 nan 23 23 22 21 21 20 19 18 18 19 20 20 21 21 22 23 23 23 nan 26 26 25 24 24 nan nan 26 25 30 33 35 34 36 37 37 38 38 38 39 39 39 40 41 42 42 nan 43 42 42 41 43 42 41 41 42 46 47 47 48 48 47 48 46 46 46 45 nan nan nan nan nan nan nan nan nan nan nan nan nan nan nan nan nan
nan nan nan 23 22 21 20 20 20 19 19 21 22 23 23 24 24 25 27 25 26 26 28 26 27 27 26 25 nan 27 30 36 36 36 34 38 39 39 39 38 38 38 38 39 nan 39 nan nan nan nan 40 40 44 45 46 46 43 41 42 46 48 nan nan nan nan nan nan nan nan nan nan nan nan nan nan nan nan nan nan nan nan nan nan nan nan
nan nan nan 23 22 22 21 20 21 21 22 23 24 24 26 26 27 26 27 28 26 27 28 29 28 29 29 30 30 28 29 31 33 35 37 39 40 40 40 39 38 39 39 nan nan nan nan nan 38 38 nan nan 41 nan nan nan nan nan nan nan nan nan nan nan nan nan nan nan nan nan nan nan nan nan nan nan nan nan nan nan nan nan nan nan nan
nan nan nan nan 22 22 22 nan nan 24 nan 25 26 25 nan 27 27 28 29 29 28 29 29 30 30 30 30 31 31 30 31 29 32 40 39 38 38 nan nan nan 40 nan nan nan nan nan nan nan nan nan nan 37 37 38 nan nan nan nan nan nan nan nan nan 43 nan nan nan nan nan nan nan nan nan nan nan nan nan nan nan nan nan nan nan nan nan
nan nan nan nan nan nan 23 23 nan nan nan nan 27 27 nan 29 29 29 30 30 30 30 30 31 31 32 31 31 31 31 30 31 29 29 39 42 nan nan nan nan nan 39 nan nan nan nan nan nan nan nan nan nan 33 34 nan nan nan nan nan nan nan nan nan nan nan nan nan nan nan nan nan nan nan nan nan nan nan nan nan nan nan nan nan nan nan
nan nan nan nan nan nan nan 25 25 25 nan nan nan 28 28 29 29 nan 28 29 29 29 29 31 32 32 30 32 30 31 31 32 31 30 33 40 40 nan nan nan nan nan nan nan nan nan nan nan nan nan nan nan nan nan nan nan nan nan nan nan nan nan nan nan nan nan nan nan nan nan nan nan nan nan nan nan nan nan nan nan nan nan nan nan nan
nan nan nan nan nan nan nan 26 25 25 25 26 nan nan nan 28 28 29 28 28 29 29 30 31 32 32 32 31 31 30 30 29 30 30 29 39 38 nan nan 37 nan nan nan nan nan nan nan nan nan nan nan nan nan nan nan nan nan nan nan nan nan nan nan nan nan nan nan nan nan nan nan nan nan nan nan nan nan nan nan nan nan nan nan nan nan
nan nan nan nan nan nan nan 25 25 24 nan nan nan nan nan nan nan nan nan nan 29 29 30 31 31 32 32 31 29 28 26 24 25 24 22 36 38 36 35 36 nan nan nan nan nan nan nan nan nan nan nan nan nan nan nan nan nan nan nan nan nan nan nan nan nan nan nan nan nan nan nan nan nan nan nan nan nan nan nan nan nan nan nan nan nan
nan nan nan nan nan nan nan 25 25 24 nan nan nan nan nan nan nan nan nan nan nan 29 30 29 29 28 28 26 25 24 23 21 23 21 26 32 35 38 37 nan nan nan nan nan nan nan nan nan nan nan nan nan nan nan nan nan nan nan nan nan nan nan nan nan nan nan nan nan nan nan nan nan nan nan nan nan nan nan nan nan nan nan nan nan nan
nan nan nan nan nan nan nan nan nan nan nan nan nan nan nan nan nan nan nan nan nan nan nan 26 24 24 23 23 22 22 22 22 22 22 27 30 33 37 36 36 nan nan nan nan nan nan nan nan nan nan nan nan nan nan nan nan nan nan nan nan nan nan nan nan nan nan nan nan nan nan nan nan nan nan nan nan nan nan nan nan nan nan nan nan nan
nan nan nan nan nan nan nan nan nan nan nan nan nan nan nan nan nan nan nan nan nan nan nan nan 21 20 20 21 21 22 23 23 24 24 26 30 30 34 34 34 nan nan nan nan nan nan nan nan nan nan nan nan nan nan nan nan nan nan nan nan nan nan nan nan nan nan nan nan nan nan nan nan nan nan nan nan nan nan nan nan nan nan nan nan nan
nan nan nan nan nan nan nan nan nan nan nan nan nan nan nan nan nan nan nan nan nan nan nan nan nan 19 20 20 21 23 23 24 24 24 25 23 26 30 31 34 29 nan nan nan nan nan nan nan nan nan nan nan nan nan nan nan nan nan nan nan nan nan nan nan nan nan nan nan nan nan nan nan nan nan nan nan nan nan nan nan nan nan nan nan nan
nan nan nan nan nan nan nan nan nan nan nan nan nan nan nan nan nan nan nan nan nan nan nan nan nan nan 20 20 21 24 22 21 21 20 21 22 21 24 28 27 27 nan nan nan nan nan nan nan nan nan nan nan nan nan nan nan nan nan nan nan nan nan nan nan nan nan nan nan nan nan nan nan nan nan nan nan nan nan nan nan nan nan nan nan nan
nan nan nan nan nan nan nan nan nan nan nan nan nan nan nan nan nan nan nan nan nan nan nan nan nan nan nan nan 21 nan nan 17 18 17 19 19 20 15 21 23 18 20 nan nan nan nan nan nan nan nan nan nan nan nan nan nan nan nan nan nan nan nan nan nan nan nan nan nan nan nan nan nan nan nan nan nan nan nan nan nan nan nan nan nan nan
nan nan nan nan nan nan nan nan nan nan nan nan nan nan nan nan nan nan nan nan nan nan nan nan nan nan nan nan nan nan nan nan 15 16 16 16 15 12 13 14 17 12 nan nan nan nan nan nan nan nan nan nan nan nan nan nan nan nan nan nan nan nan nan nan nan nan nan nan nan nan nan nan nan nan nan nan nan nan nan nan nan nan nan nan nan
nan nan nan nan nan nan nan nan nan nan nan nan nan nan nan nan nan nan nan nan nan nan nan nan nan nan nan nan nan nan nan nan nan 11 11 10 12 10 9 7 7 7 11 11 nan nan nan nan nan nan nan nan nan nan nan nan nan nan nan nan nan nan nan nan nan nan nan nan nan nan nan nan nan nan nan nan nan nan nan nan nan nan nan nan nan
nan nan nan nan nan nan nan nan nan nan nan nan nan nan nan nan nan nan nan nan nan nan nan nan nan nan nan nan nan nan nan nan nan nan nan 6 3 5 5 5 4 5 7 9 13 nan nan nan nan nan nan nan nan nan nan nan nan nan nan nan nan nan nan nan nan nan nan nan nan nan nan nan nan nan nan nan nan nan nan nan nan nan nan nan nan
nan nan nan nan nan nan nan nan nan nan nan nan nan nan nan nan nan nan nan nan nan nan nan nan nan nan nan nan nan nan nan nan nan nan nan nan 4 2 4 5 5 6 6 9 nan nan nan nan nan nan nan nan nan nan nan nan nan nan nan nan nan nan nan nan nan nan nan nan nan nan nan nan nan nan nan nan nan nan nan nan nan nan nan nan nan
nan nan nan nan nan nan nan nan nan nan nan nan nan nan nan nan nan nan nan nan nan nan nan nan nan nan nan nan nan nan nan nan nan nan nan nan nan 4 2 2 2 3 3 4 7 nan nan nan nan nan nan nan nan nan nan nan nan nan nan nan nan nan nan nan nan nan nan nan nan nan nan nan nan nan nan nan nan nan nan nan nan nan nan nan nan
nan nan nan nan nan nan nan nan nan nan nan nan nan nan nan nan nan nan nan nan nan nan nan nan nan nan nan nan nan nan nan nan nan nan nan nan nan 1 2 3 2 1 3 4 nan nan nan nan nan nan nan nan nan nan nan nan nan nan nan nan nan nan nan nan nan nan nan nan nan nan nan nan nan nan nan nan nan nan nan nan nan nan nan nan nan
nan nan nan nan nan nan nan nan nan nan nan nan nan nan nan nan nan nan nan nan nan nan nan nan nan nan nan nan nan nan nan nan nan nan nan nan 5 3 3 2 4 5 4 nan nan nan nan nan nan nan nan nan nan nan nan nan nan nan nan nan nan nan nan nan nan nan nan nan nan nan nan nan nan nan nan nan nan nan nan nan nan nan nan nan nan
nan nan nan nan nan nan nan nan nan nan nan nan nan nan nan nan nan nan nan nan nan nan nan nan nan nan nan nan nan nan nan nan nan nan nan 6 nan 2 3 4 5 5 nan nan nan nan nan nan nan nan nan nan nan nan nan nan nan nan nan nan nan nan nan nan nan nan nan nan nan nan nan nan nan nan nan nan nan nan nan nan nan nan nan nan nan
nan nan nan nan nan nan nan nan nan nan nan nan nan nan nan nan nan nan nan nan nan nan nan nan nan nan nan nan nan nan nan nan nan nan nan nan nan nan nan nan nan nan nan nan nan nan nan nan nan nan nan nan nan nan nan nan nan nan nan nan nan nan nan nan nan nan nan nan nan nan nan nan nan nan nan nan nan nan nan nan nan nan nan nan nan
nan nan nan nan nan nan nan nan nan nan nan nan nan nan nan nan nan nan nan nan nan nan nan nan nan nan nan nan nan nan nan nan nan nan nan nan nan nan nan nan nan nan nan nan nan nan nan nan nan nan nan nan nan nan nan nan nan nan nan nan nan nan nan nan nan nan nan nan nan nan nan nan nan nan nan nan nan nan nan nan nan nan nan nan nan
nan nan nan nan nan nan nan nan nan nan nan nan nan nan nan nan nan nan nan nan nan nan nan nan nan nan nan nan nan nan nan nan nan nan nan nan nan nan nan nan nan nan nan nan nan nan nan nan nan nan nan nan nan nan nan nan nan nan nan nan nan nan nan nan nan nan nan nan nan nan nan nan nan nan nan nan nan nan nan nan nan nan nan nan nan
nan nan nan nan nan nan nan nan nan nan nan nan nan nan nan nan nan nan nan nan nan nan nan nan nan nan nan nan nan nan nan nan nan nan nan nan nan nan nan nan nan nan nan nan nan nan nan nan nan nan nan nan nan nan nan nan nan nan nan nan nan nan nan nan nan nan nan nan nan nan nan nan nan nan nan nan nan nan nan nan nan nan nan nan nan
nan nan nan nan nan nan nan nan nan nan nan nan nan nan nan nan nan nan nan nan nan nan nan nan nan nan nan nan nan nan nan nan nan nan nan nan nan nan nan nan nan nan nan nan nan nan nan nan nan nan nan nan nan nan nan nan nan nan nan nan nan nan nan nan nan nan nan nan nan nan nan nan nan nan nan nan nan nan nan nan nan nan nan nan nan
nan nan nan nan nan nan nan nan nan nan nan nan nan nan nan nan nan nan nan nan nan nan nan nan nan nan nan nan nan nan nan nan nan nan nan nan nan nan nan nan nan nan nan nan nan nan nan nan nan nan nan nan nan nan nan nan nan nan nan nan nan nan nan nan nan nan nan nan nan nan nan nan nan nan nan nan nan nan nan nan nan nan nan nan nan
nan nan nan nan nan nan nan nan nan nan nan nan nan nan nan nan nan nan nan nan nan nan nan nan nan nan nan nan nan nan nan nan nan nan nan nan nan nan nan nan nan nan nan nan nan nan nan nan nan nan nan nan nan nan nan nan nan nan nan nan nan nan nan nan nan nan nan nan nan nan nan nan nan nan nan nan nan nan nan nan nan nan nan nan nan
19 nan nan nan nan nan nan nan nan nan nan nan nan nan nan nan nan nan nan nan nan nan nan nan nan nan nan nan nan nan nan nan nan nan nan nan nan nan nan nan nan nan nan nan nan nan nan nan nan nan nan nan nan nan nan nan nan nan nan nan nan nan nan nan nan nan nan nan nan nan nan nan nan nan nan nan nan nan nan nan nan nan nan nan nan
16 nan nan nan nan nan nan nan nan nan nan nan nan nan nan nan nan nan nan nan nan nan nan nan nan nan nan nan nan nan nan nan nan nan nan nan nan nan nan nan nan nan nan nan nan nan nan nan nan nan nan nan nan nan nan nan nan nan nan nan nan nan nan nan nan nan nan nan nan nan nan nan nan nan nan nan nan nan nan nan nan nan nan nan nan
13 nan nan nan nan nan nan nan nan nan nan nan nan nan nan nan nan nan nan nan nan nan nan nan nan nan nan nan nan nan nan nan nan nan nan nan nan nan nan nan nan nan nan nan nan nan nan nan nan nan nan nan nan nan nan nan nan nan nan nan nan nan nan nan nan nan nan nan nan nan nan nan nan nan nan nan nan nan nan nan nan nan nan nan nan
12 nan nan nan nan nan nan nan nan nan nan nan nan nan nan nan nan nan nan nan nan nan nan nan nan nan nan nan nan nan nan nan nan nan nan nan nan nan nan nan nan nan nan nan nan nan nan nan nan nan nan nan nan nan nan nan nan nan nan nan nan nan nan nan nan nan nan nan nan nan nan nan nan nan nan nan nan nan nan nan nan nan nan nan nan
15 nan nan nan nan nan nan nan nan nan nan nan nan nan nan nan nan nan nan nan nan nan nan nan nan nan nan nan nan nan nan nan nan nan nan nan nan nan nan nan nan nan nan nan nan nan nan nan nan nan nan nan nan nan nan nan nan nan nan nan nan nan nan nan nan nan nan nan nan nan nan nan nan nan nan nan nan nan nan nan nan nan nan nan nan
17 15 nan nan nan nan nan nan nan nan nan nan nan nan nan nan nan nan nan nan nan nan nan nan nan nan nan nan nan nan nan nan nan nan nan nan nan nan nan nan nan nan nan nan nan nan nan nan nan nan nan nan nan nan nan nan nan nan nan nan nan nan nan nan nan nan nan nan nan nan nan nan nan nan nan nan nan nan nan nan nan nan nan nan nan
18 19 nan nan nan nan nan nan nan nan nan nan nan nan nan nan nan nan nan nan nan nan nan nan nan nan nan nan nan nan nan nan nan nan nan nan nan nan nan nan nan nan nan nan nan nan nan nan nan nan nan nan nan nan nan nan nan nan nan nan nan nan nan nan nan nan nan nan nan nan nan nan nan nan nan nan nan nan nan nan nan nan nan nan nan
Wind_Direction
209 208 208 208 208 207 199 207 203 212 209 219 221 229 238 234 238 241 255 249 261 269 270 281 283 288 279 269 259 262 264 265 265 265 263 263 269 277 292 290 295 302 303 305 301 297 294 288 297 299 298 290 293 301 304 302 303 300 306 311 310 315 320 323 323 321 nan nan nan nan nan nan nan nan nan nan nan nan nan nan nan nan nan nan nan
208 205 207 206 206 204 205 205 211 220 217 231 235 242 244 251 256 253 254 263 258 259 264 277 286 286 284 280 277 270 268 267 265 271 269 266 267 273 294 294 298 301 303 305 305 301 300 296 295 296 298 299 298 300 302 302 297 299 296 299 307 311 312 313 316 316 318 317 321 327 333 337 338 335 333 333 331 326 324 323 nan nan nan nan 333
205 205 209 206 214 212 215 217 229 231 230 238 249 248 252 252 254 251 255 253 257 267 272 274 273 279 278 280 279 276 273 267 267 260 266 267 269 269 284 301 304 300 293 289 288 288 285 287 290 290 293 296 298 303 304 307 301 292 286 281 280 290 303 309 312 314 316 316 318 323 328 331 332 330 329 328 326 322 319 319 321 325 332 337 338
208 212 214 215 216 216 223 226 230 236 242 246 259 254 257 259 258 263 261 258 262 269 270 271 272 272 278 280 275 275 277 275 273 270 265 265 264 270 276 288 300 293 289 280 274 271 269 269 271 273 278 284 293 306 307 297 289 279 269 269 277 286 291 297 303 309 311 313 313 317 321 325 325 324 324 322 321 318 315 314 313 315 320 327 332
219 217 217 224 221 222 229 236 241 241 245 243 244 264 266 269 269 264 268 268 269 270 266 265 271 270 268 271 278 277 271 276 274 271 269 273 273 273 272 277 284 302 296 286 279 270 264 257 254 254 248 244 240 243 255 266 277 283 280 282 287 290 294 297 300 299 301 304 308 311 316 318 318 318 316 314 313 312 310 306 299 294 296 307 313
217 222 219 226 231 nan 237 244 245 244 252 251 259 261 265 267 272 275 272 273 272 268 271 271 266 269 272 266 269 271 273 274 273 277 275 274 272 275 277 276 278 282 292 302 287 277 264 255 251 248 247 244 238 236 241 239 240 249 253 252 255 267 278 289 302 304 305 308 308 310 311 312 312 311 310 307 305 301 292 286 292 298 300 299 301
226 226 229 233 240 244 241 244 245 250 249 254 254 259 264 266 265 267 273 277 275 277 269 269 268 266 263 264 263 264 267 267 272 273 282 279 281 277 272 279 276 266 254 261 276 267 266 262 261 259 258 256 254 252 250 246 247 250 254 264 269 272 278 284 289 297 304 307 307 309 310 312 308 304 303 307 304 298 293 293 289 297 303 300 299
234 234 236 237 239 243 243 245 249 256 260 260 260 260 259 260 262 265 nan nan nan 283 279 273 271 269 267 266 264 262 265 268 269 274 273 278 275 276 271 258 259 265 270 275 276 272 267 268 263 261 259 256 254 253 251 250 251 256 260 262 265 270 277 282 286 289 292 296 302 303 300 298 301 297 297 297 295 290 284 283 285 288 293 296 296
239 237 238 240 243 245 248 249 253 258 265 267 269 269 266 264 265 262 266 270 nan nan nan 283 282 278 274 269 268 267 266 267 268 270 276 274 276 272 266 273 272 270 272 272 273 273 274 273 270 264 261 259 256 256 257 256 258 257 259 261 262 268 271 276 285 290 291 293 297 298 296 296 285 286 288 288 289 286 282 279 274 282 295 303 295
246 246 247 248 248 249 254 255 260 264 266 269 nan nan 271 270 271 272 267 nan nan nan nan 275 276 280 277 273 272 271 272 270 270 269 269 271 271 271 271 272 271 270 272 273 272 273 275 278 276 271 266 263 261 259 258 255 255 259 262 263 264 263 265 268 271 278 285 287 285 292 296 292 296 292 292 289 288 282 278 275 275 283 283 282 283
251 250 251 253 256 257 259 259 264 266 267 270 272 269 270 271 nan nan nan nan nan nan nan nan 280 280 280 278 277 275 273 272 272 271 270 270 270 271 273 272 273 272 272 273 274 273 274 273 275 274 273 270 266 262 259 257 257 259 261 263 264 266 267 266 268 271 272 274 280 283 283 286 284 283 282 285 282 282 283 283 279 277 276 276 nan
255 255 256 255 257 259 260 262 265 267 268 268 268 271 271 272 273 271 275 nan nan 274 275 279 279 279 280 281 278 278 275 274 273 272 273 271 270 269 269 269 270 271 271 273 274 275 275 276 277 277 277 275 273 270 268 261 260 260 261 262 264 265 267 269 269 271 272 274 276 278 279 280 281 279 280 282 280 279 279 277 276 nan nan nan nan
256 256 257 259 260 260 260 260 262 265 269 270 271 271 272 274 276 280 277 278 280 280 279 279 283 286 282 283 281 276 276 275 274 274 272 271 270 269 269 270 270 270 272 273 274 275 276 275 275 275 274 274 279 282 277 266 263 262 262 263 264 263 266 269 271 271 271 271 272 275 275 275 276 274 272 271 272 274 nan nan nan nan nan nan nan
258 257 257 256 257 260 261 262 264 267 268 270 270 272 272 272 273 278 nan 279 281 278 277 279 292 nan 289 289 284 280 277 275 275 274 273 273 274 273 273 273 272 272 273 275 275 276 275 276 276 275 275 275 272 272 276 275 270 264 264 263 264 264 265 268 270 272 273 273 272 272 273 274 273 273 272 272 nan nan nan nan nan nan nan nan nan
264 264 261 260 261 263 264 265 264 265 268 269 269 269 270 270 270 273 275 nan nan 285 279 277 281 284 286 290 295 294 285 282 279 276 276 276 276 276 276 275 274 275 275 274 273 272 273 273 273 273 274 273 273 275 274 274 271 267 266 264 264 263 265 269 271 272 272 273 272 273 274 nan 275 nan nan nan nan nan nan nan nan nan nan nan nan
269 nan 269 267 266 267 270 268 267 266 266 266 264 265 267 268 271 274 275 279 nan 280 281 278 278 279 nan nan 284 287 296 290 285 281 280 278 276 277 278 279 280 278 276 273 272 271 270 nan 270 271 271 269 268 268 268 270 270 271 266 265 265 264 263 263 265 267 268 270 nan nan nan nan nan nan nan nan nan nan nan nan nan nan nan nan nan
nan nan nan 270 268 268 268 269 267 263 264 265 266 266 268 271 272 275 275 277 280 280 280 278 278 277 278 281 nan 291 280 291 290 281 280 281 279 280 278 279 278 278 276 275 nan 273 nan nan nan nan 270 269 267 266 266 266 268 268 268 264 265 nan nan nan nan nan nan nan nan nan nan nan nan nan nan nan nan nan nan nan nan nan nan nan nan
nan nan nan 271 270 269 268 270 270 269 268 268 270 273 272 271 273 274 276 275 277 279 279 279 277 275 275 276 276 277 274 277 285 284 277 277 280 278 279 279 279 277 276 nan nan nan nan nan 273 272 nan nan 270 nan nan nan nan nan nan nan nan nan nan nan nan nan nan nan nan nan nan nan nan nan nan nan nan nan nan nan nan nan nan nan nan
nan nan nan nan 270 270 270 nan nan 275 nan 274 273 272 nan 272 272 273 273 275 275 277 277 278 279 277 275 276 275 274 277 278 279 282 283 275 272 nan nan nan 275 nan nan nan nan nan nan nan nan nan nan 272 270 270 nan nan nan nan nan nan nan nan nan 265 nan nan nan nan nan nan nan nan nan nan nan nan nan nan nan nan nan nan nan nan nan
nan nan nan nan nan nan 270 271 nan nan nan nan 273 272 nan 270 269 269 272 273 273 274 276 277 277 278 278 276 276 278 276 279 279 281 285 286 nan nan nan nan nan 273 nan nan nan nan nan nan nan nan nan nan 272 271 nan nan nan nan nan nan nan nan nan nan nan nan nan nan nan nan nan nan nan nan nan nan nan nan nan nan nan nan nan nan nan
nan nan nan nan nan nan nan 269 270 270 nan nan nan 272 270 269 268 nan 269 273 274 275 276 277 276 277 279 279 280 277 278 277 277 280 284 287 288 nan nan nan nan nan nan nan nan nan nan nan nan nan nan nan nan nan nan nan nan nan nan nan nan nan nan nan nan nan nan nan nan nan nan nan nan nan nan nan nan nan nan nan nan nan nan nan nan
nan nan nan nan nan nan nan 271 271 271 272 272 nan nan nan 270 270 271 271 273 276 276 276 277 279 278 278 276 275 277 279 281 280 280 286 292 290 nan nan 288 nan nan nan nan nan nan nan nan nan nan nan nan nan nan nan nan nan nan nan nan nan nan nan nan nan nan nan nan nan nan nan nan nan nan nan nan nan nan nan nan nan nan nan nan nan
nan nan nan nan nan nan nan 273 273 273 nan nan nan nan nan nan nan nan nan nan 275 276 277 276 277 277 275 275 275 274 274 273 276 275 274 280 289 290 290 286 nan nan nan nan nan nan nan nan nan nan nan nan nan nan nan nan nan nan nan nan nan nan nan nan nan nan nan nan nan nan nan nan nan nan nan nan nan nan nan nan nan nan nan nan nan
nan nan nan nan nan nan nan 277 276 275 nan nan nan nan nan nan nan nan nan nan nan 276 278 278 278 281 279 277 278 279 279 276 273 274 270 282 289 292 289 nan nan nan nan nan nan nan nan nan nan nan nan nan nan nan nan nan nan nan nan nan nan nan nan nan nan nan nan nan nan nan nan nan nan nan nan nan nan nan nan nan nan nan nan nan nan
nan nan nan nan nan nan nan nan nan nan nan nan nan nan nan nan nan nan nan nan nan nan nan 281 282 282 282 283 282 281 280 278 277 276 279 285 289 291 288 289 nan nan nan nan nan nan nan nan nan nan nan nan nan nan nan nan nan nan nan nan nan nan nan nan nan nan nan nan nan nan nan nan nan nan nan nan nan nan nan nan nan nan nan nan nan
nan nan nan nan nan nan nan nan nan nan nan nan nan nan nan nan nan nan nan nan nan nan nan nan 282 281 282 285 283 282 281 278 280 281 282 289 289 289 290 285 nan nan nan nan nan nan nan nan nan nan nan nan nan nan nan nan nan nan nan nan nan nan nan nan nan nan nan nan nan nan nan nan nan nan nan nan nan nan nan nan nan nan nan nan nan
nan nan nan nan nan nan nan nan nan nan nan nan nan nan nan nan nan nan nan nan nan nan nan nan nan 282 283 285 286 285 282 282 283 283 285 283 285 292 291 285 280 nan nan nan nan nan nan nan nan nan nan nan nan nan nan nan nan nan nan nan nan nan nan nan nan nan nan nan nan nan nan nan nan nan nan nan nan nan nan nan nan nan nan nan nan
nan nan nan nan nan nan nan nan nan nan nan nan nan nan nan nan nan nan nan nan nan nan nan nan nan nan 287 288 293 288 287 285 286 287 282 280 274 283 286 285 283 nan nan nan nan nan nan nan nan nan nan nan nan nan nan nan nan nan nan nan nan nan nan nan nan nan nan nan nan nan nan nan nan nan nan nan nan nan nan nan nan nan nan nan nan
nan nan nan nan nan nan nan nan nan nan nan nan nan nan nan nan nan nan nan nan nan nan nan nan nan nan nan nan 295 nan nan 290 288 289 285 281 280 268 262 271 283 289 nan nan nan nan nan nan nan nan nan nan nan nan nan nan nan nan nan nan nan nan nan nan nan nan nan nan nan nan nan nan nan nan nan nan nan nan nan nan nan nan nan nan nan
nan nan nan nan nan nan nan nan nan nan nan nan nan nan nan nan nan nan nan nan nan nan nan nan nan nan nan nan nan nan nan nan 291 287 290 289 284 276 277 288 289 298 nan nan nan nan nan nan nan nan nan nan nan nan nan nan nan nan nan nan nan nan nan nan nan nan nan nan nan nan nan nan nan nan nan nan nan nan nan nan nan nan nan nan nan
nan nan nan nan nan nan nan nan nan nan nan nan nan nan nan nan nan nan nan nan nan nan nan nan nan nan nan nan nan nan nan nan nan 300 290 288 291 293 279 248 274 268 302 289 nan nan nan nan nan nan nan nan nan nan nan nan nan nan nan nan nan nan nan nan nan nan nan nan nan nan nan nan nan nan nan nan nan nan nan nan nan nan nan nan nan
nan nan nan nan nan nan nan nan nan nan nan nan nan nan nan nan nan nan nan nan nan nan nan nan nan nan nan nan nan nan nan nan nan nan nan 302 293 291 294 281 283 285 290 300 294 nan nan nan nan nan nan nan nan nan nan nan nan nan nan nan nan nan nan nan nan nan nan nan nan nan nan nan nan nan nan nan nan nan nan nan nan nan nan nan nan
nan nan nan nan nan nan nan nan nan nan nan nan nan nan nan nan nan nan nan nan nan nan nan nan nan nan nan nan nan nan nan nan nan nan nan nan 319 353 304 306 307 309 306 301 nan nan nan nan nan nan nan nan nan nan nan nan nan nan nan nan nan nan nan nan nan nan nan nan nan nan nan nan nan nan nan nan nan nan nan nan nan nan nan nan nan
nan nan nan nan nan nan nan nan nan nan nan nan nan nan nan nan nan nan nan nan nan nan nan nan nan nan nan nan nan nan nan nan nan nan nan nan nan 331 335 333 342 328 310 316 309 nan nan nan nan nan nan nan nan nan nan nan nan nan nan nan nan nan nan nan nan nan nan nan nan nan nan nan nan nan nan nan nan nan nan nan nan nan nan nan nan
nan nan nan nan nan nan nan nan nan nan nan nan nan nan nan nan nan nan nan nan nan nan nan nan nan nan nan nan nan nan nan nan nan nan nan nan nan 73 43 52 45 346 335 333 nan nan nan nan nan nan nan nan nan nan nan nan nan nan nan nan nan nan nan nan nan nan nan nan nan nan nan nan nan nan nan nan nan nan nan nan nan nan nan nan nan
nan nan nan nan nan nan nan nan nan nan nan nan nan nan nan nan nan nan nan nan nan nan nan nan nan nan nan nan nan nan nan nan nan nan nan nan 108 105 95 67 33 2 358 nan nan nan nan nan nan nan nan nan nan nan nan nan nan nan nan nan nan nan nan nan nan nan nan nan nan nan nan nan nan nan nan nan nan nan nan nan nan nan nan nan nan
nan nan nan nan nan nan nan nan nan nan nan nan nan nan nan nan nan nan nan nan nan nan nan nan nan nan nan nan nan nan nan nan nan nan nan 130 nan 80 35 15 357 356 nan nan nan nan nan nan nan nan nan nan nan nan nan nan nan nan nan nan nan nan nan nan nan nan nan nan nan nan nan nan nan nan nan nan nan nan nan nan nan nan nan nan nan
nan nan nan nan nan nan nan nan nan nan nan nan nan nan nan nan nan nan nan nan nan nan nan nan nan nan nan nan nan nan nan nan nan nan nan nan nan nan nan nan nan nan nan nan nan nan nan nan nan nan nan nan nan nan nan nan nan nan nan nan nan nan nan nan nan nan nan nan nan nan nan nan nan nan nan nan nan nan nan nan nan nan nan nan nan
nan nan nan nan nan nan nan nan nan nan nan nan nan nan nan nan nan nan nan nan nan nan nan nan nan nan nan nan nan nan nan nan nan nan nan nan nan nan nan nan nan nan nan nan nan nan nan nan nan nan nan nan nan nan nan nan nan nan nan nan nan nan nan nan nan nan nan nan nan nan nan nan nan nan nan nan nan nan nan nan nan nan nan nan nan
nan nan nan nan nan nan nan nan nan nan nan nan nan nan nan nan nan nan nan nan nan nan nan nan nan nan nan nan nan nan nan nan nan nan nan nan nan nan nan nan nan nan nan nan nan nan nan nan nan nan nan nan nan nan nan nan nan nan nan nan nan nan nan nan nan nan nan nan nan nan nan nan nan nan nan nan nan nan nan nan nan nan nan nan nan
nan nan nan nan nan nan nan nan nan nan nan nan nan nan nan nan nan nan nan nan nan nan nan nan nan nan nan nan nan nan nan nan nan nan nan nan nan nan nan nan nan nan nan nan nan nan nan nan nan nan nan nan nan nan nan nan nan nan nan nan nan nan nan nan nan nan nan nan nan nan nan nan nan nan nan nan nan nan nan nan nan nan nan nan nan
nan nan nan nan nan nan nan nan nan nan nan nan nan nan nan nan nan nan nan nan nan nan nan nan nan nan nan nan nan nan nan nan nan nan nan nan nan nan nan nan nan nan nan nan nan nan nan nan nan nan nan nan nan nan nan nan nan nan nan nan nan nan nan nan nan nan nan nan nan nan nan nan nan nan nan nan nan nan nan nan nan nan nan nan nan
nan nan nan nan nan nan nan nan nan nan nan nan nan nan nan nan nan nan nan nan nan nan nan nan nan nan nan nan nan nan nan nan nan nan nan nan nan nan nan nan nan nan nan nan nan nan nan nan nan nan nan nan nan nan nan nan nan nan nan nan nan nan nan nan nan nan nan nan nan nan nan nan nan nan nan nan nan nan nan nan nan nan nan nan nan
nan nan nan nan nan nan nan nan nan nan nan nan nan nan nan nan nan nan nan nan nan nan nan nan nan nan nan nan nan nan nan nan nan nan nan nan nan nan nan nan nan nan nan nan nan nan nan nan nan nan nan nan nan nan nan nan nan nan nan nan nan nan nan nan nan nan nan nan nan nan nan nan nan nan nan nan nan nan nan nan nan nan nan nan nan
318 nan nan nan nan nan nan nan nan nan nan nan nan nan nan nan nan nan nan nan nan nan nan nan nan nan nan nan nan nan nan nan nan nan nan nan nan nan nan nan nan nan nan nan nan nan nan nan nan nan nan nan nan nan nan nan nan nan nan nan nan nan nan nan nan nan nan nan nan nan nan nan nan nan nan nan nan nan nan nan nan nan nan nan nan
318 nan nan nan nan nan nan nan nan nan nan nan nan nan nan nan nan nan nan nan nan nan nan nan nan nan nan nan nan nan nan nan nan nan nan nan nan nan nan nan nan nan nan nan nan nan nan nan nan nan nan nan nan nan nan nan nan nan nan nan nan nan nan nan nan nan nan nan nan nan nan nan nan nan nan nan nan nan nan nan nan nan nan nan nan
310 nan nan nan nan nan nan nan nan nan nan nan nan nan nan nan nan nan nan nan nan nan nan nan nan nan nan nan nan nan nan nan nan nan nan nan nan nan nan nan nan nan nan nan nan nan nan nan nan nan nan nan nan nan nan nan nan nan nan nan nan nan nan nan nan nan nan nan nan nan nan nan nan nan nan nan nan nan nan nan nan nan nan nan nan
288 nan nan nan nan nan nan nan nan nan nan nan nan nan nan nan nan nan nan nan nan nan nan nan nan nan nan nan nan nan nan nan nan nan nan nan nan nan nan nan nan nan nan nan nan nan nan nan nan nan nan nan nan nan nan nan nan nan nan nan nan nan nan nan nan nan nan nan nan nan nan nan nan nan nan nan nan nan nan nan nan nan nan nan nan
289 nan nan nan nan nan nan nan nan nan nan nan nan nan nan nan nan nan nan nan nan nan nan nan nan nan nan nan nan nan nan nan nan nan nan nan nan nan nan nan nan nan nan nan nan nan nan nan nan nan nan nan nan nan nan nan nan nan nan nan nan nan nan nan nan nan nan nan nan nan nan nan nan nan nan nan nan nan nan nan nan nan nan nan nan
288 283 nan nan nan nan nan nan nan nan nan nan nan nan nan nan nan nan nan nan nan nan nan nan nan nan nan nan nan nan nan nan nan nan nan nan nan nan nan nan nan nan nan nan nan nan nan nan nan nan nan nan nan nan nan nan nan nan nan nan nan nan nan nan nan nan nan nan nan nan nan nan nan nan nan nan nan nan nan nan nan nan nan nan nan
281 278 nan nan nan nan nan nan nan nan nan nan nan nan nan nan nan nan nan nan nan nan nan nan nan nan nan nan nan nan nan nan nan nan nan nan nan nan nan nan nan nan nan nan nan nan nan nan nan nan nan nan nan nan nan nan nan nan nan nan nan nan nan nan nan nan nan nan nan nan nan nan nan nan nan nan nan nan nan nan nan nan nan nan nan